Location: ActonStarParty
(42.4766°N, 71.4538°W)
Time: 09:24:26
(UTC-04:00)

ISS - Visible Passes

Search period start: 22 July 2014 00:00
Search period end: 01 August 2014 00:00
Orbit: 413 x 420 km, 51.6° (Epoch: 22 July)

Date Brightness Start Highest point End Pass type
(mag) Time Alt. Az. Time Alt. Az. Time Alt. Az.
22 Jul -3.2 03:02:32 75° NNW 03:02:32 75° NNW 03:05:53 10° NE visible
22 Jul -1.0 04:37:01 10° WNW 04:39:41 21° NNW 04:42:20 10° NE visible
23 Jul -1.3 02:15:43 26° ENE 02:15:43 26° ENE 02:17:21 10° ENE visible
23 Jul -1.4 03:48:35 13° WNW 03:50:59 26° NNW 03:53:53 10° NE visible
24 Jul -2.0 03:01:44 31° NW 03:02:20 34° NNW 03:05:27 10° NE visible
24 Jul -0.6 04:37:28 10° NW 04:39:48 17° N 04:42:08 10° NE visible
25 Jul -1.5 02:14:52 33° NNE 02:14:52 33° NNE 02:17:01 10° NE visible
25 Jul -0.7 03:48:34 10° WNW 03:51:03 19° N 03:53:31 10° NE visible
26 Jul -0.3 01:27:58 14° NE 01:27:58 14° NE 01:28:33 10° NE visible
26 Jul -1.0 03:00:50 17° NW 03:02:19 22° NNW 03:05:00 10° NE visible
26 Jul -0.5 04:37:33 10° NW 04:39:56 18° N 04:42:18 10° NE visible
27 Jul -1.2 02:13:55 26° N 02:13:55 26° N 02:16:33 10° NE visible
27 Jul -0.4 03:48:52 10° NW 03:51:10 17° N 03:53:28 10° NE visible
28 Jul -0.5 01:27:00 18° NE 01:27:00 18° NE 01:28:06 10° NE visible
28 Jul -0.5 03:00:03 10° NW 03:02:24 17° N 03:04:44 10° NE visible
28 Jul -0.7 04:37:16 10° NW 04:40:00 22° NNE 04:42:44 10° ENE visible
29 Jul -0.7 02:12:57 18° NNW 02:13:38 19° N 02:16:08 10° NE visible
29 Jul -0.5 03:48:45 10° NW 03:51:16 19° N 03:53:47 10° ENE visible
30 Jul -0.4 01:26:02 19° NNE 01:26:02 19° NNE 01:27:37 10° NE visible
30 Jul -0.4 03:00:09 10° NW 03:02:30 17° N 03:04:51 10° NE visible
30 Jul -1.6 04:36:46 10° NW 04:39:56 37° NNE 04:43:05 10° E visible
31 Jul -0.3 02:12:03 13° NW 02:13:43 17° N 02:16:00 10° NE visible
31 Jul -1.0 03:48:19 10° NW 03:51:15 27° NNE 03:54:12 10° E visible
